Weather in Novozavedennoye

Russia / Stavropol Krai     44°15′49″N   43°38′22″E
temp.,
°C
wind,
m/s
gust,
m/s
humid.,
%
clouds,
%
prec.,
mm/h
press.,
hPa
HPBL,
m
18 may, tue
tue1800:00+16wnw71491100 0.9 1008587
03:00+15wnw6139486 3.6 1009574
06:00+15wnw71491100 0.8 1011627
09:00+17nw698099 1.3 1011621
12:00+21nnw456093 0.0 10121289
15:00+22nnw33545 0.0 10111497
18:00+21nne246723 0.0 1011153
21:00+16ene22760 0.0 101220
19 may, wed
wed1900:00+14se22810 0.0 101112
03:00+13se33854 0.0 101038
06:00+14se4108575 0.0 1008270
09:00+18se237288 0.0 1010427
12:00+21wnw4465100 0.0 10111169
15:00+13nw41190100 3.3 1015509
18:00+15sse028322 2.2 1016266
21:00+13s239298 2.2 101746
20 may, thu
thu2000:00+13s23900 0.0 101735
03:00+12sse2291100 0.0 101711
06:00+13sse24895 0.0 1018128
09:00+18se57675 0.0 1017956
12:00+21se685111 0.0 10161369
15:00+23se674892 0.0 10151387
18:00+21se36630 0.0 1015182
21:00+16ese48725 0.0 1015134
21 may, fri
fri2100:00+13se411620 0.0 1015198
03:00+12se37720 0.0 1014119
06:00+13ese27802 0.0 1014186
09:00+20ese46640 0.0 1013507
12:00+25ese67530 0.0 1012890
15:00+28ese68470 0.0 10111215
18:00+24e612595 0.0 1011413
21:00+18ese512640 0.0 1012289
22 may, sat
sat2200:00+14ese387699 0.0 1012156
03:00+13ese3778100 0.0 1011125
06:00+15ese26805 0.0 1011185
09:00+22ese566415 0.0 1010516
12:00+28ese685099 0.0 1009958
15:00+30e6944100 0.0 10071271
18:00+25e612545 0.0 1007361
21:00+19ne3360100 0.0 100835